Flag for United Kingdom Weather past 2 weeks in Chesterfield, England, United Kingdom

Now
42 °F

Quite cool.


Feels Like: 38 °F
Forecast: N/A
Wind: 6 mph from West

Location: Nottingham Weather Centre

Current Time: Jan 26, 2015 at 6:43:35 PM

Latest Report: Jan 26, 2015 at 6:00 PM


Visibility: 19 mi

Pressure: 30.29 "Hg

Humidity: 78%

Dew point: 35 °F

Location of ChesterfieldLocation

Historic Weather in Chesterfield — Graph

°F

Chesterfield temperature yesterday

Maximum temperature yesterday: 48 °F (at 2:00 PM)
Minimum temperature yesterday: 35 °F (at 1:00 AM)
Average temperature yesterday: 41 °F

Past Weeks' High & Low Weather Summary

 TemperatureHumidityPressure
High52 °F (Jan 12, 12:00 PM)99% (Jan 13, 1:00 AM)30.44 "Hg (Jan 13, 1:00 AM)
Low27 °F (Jan 20, 8:00 AM)64% (Jan 13, 8:00 AM)28.91 "Hg (Jan 15, 2:00 AM)
Average38 °F86%29.84 "Hg
* Reported Jan 11 5:00 PM — Jan 26 5:00 PM, Chesterfield, Weather by CustomWeather, © 2014

Note: Actual official high and low records may vary slightly from our data, if they occured in-between our weather recording intervals... More about our weather records

Advertising

Chesterfield weather history for previous 24 hours

 ConditionsComfort  
Time TempWeatherWind HumidityBarometerVisibility
5:00 PM
Jan 26
41 °FQuite cool.8 mph84%30.26 "Hg19 mi
4:00 PM43 °FQuite cool.6 mph79%30.25 "Hg19 mi
3:00 PM44 °FQuite cool.9 mph72%30.23 "Hg22 mi
2:00 PM44 °FQuite cool.7 mph71%30.21 "Hg25 mi
1:00 PM44 °FQuite cool.10 mph70%30.19 "Hg22 mi
12:00 PM45 °FQuite cool.10 mph71%30.21 "Hg22 mi
11:00 AM44 °FQuite cool.12 mph69%30.20 "Hg25 mi
10:00 AM45 °FCool.8 mph68%30.19 "Hg31 mi
9:00 AM45 °FQuite cool.9 mph77%30.18 "Hg25 mi
8:00 AM45 °FQuite cool.6 mph87%30.15 "Hg25 mi
7:00 AM46 °FCool.6 mph91%30.12 "Hg28 mi
6:00 AM47 °FFog.9 mph98%30.10 "Hg12 mi
5:00 AM47 °FCool.9 mph96%30.09 "Hg13 mi
4:00 AM47 °FCool.8 mph94%30.11 "Hg11 mi
2:00 AM48 °FCool.13 mph88%30.13 "Hg47 mi
1:00 AM48 °FCool.10 mph91%30.14 "Hg40 mi
12:00 AM47 °FCool.8 mph92%30.17 "Hg22 mi
11:00 PM
Jan 25
47 °FCool.8 mph93%30.19 "Hg16 mi
10:00 PM46 °FCool.9 mph93%30.20 "Hg13 mi
9:00 PM46 °FCool.8 mph93%30.23 "Hg12 mi
8:00 PM46 °FCool.8 mph91%30.24 "Hg16 mi
7:00 PM46 °FCool.12 mph91%30.25 "Hg18 mi
6:00 PM46 °FCool.12 mph92%30.26 "Hg15 mi
Weather by CustomWeather, © 2014

See weather overviewHow to use our weather pages